Location: Observatory
(52.1446°N, 0.4624°W)
Time: 16:47:59
(UTC+00:00)

ISS - Visible Passes

Search period start: 30 November 2023 00:00
Search period end: 10 December 2023 00:00
Orbit: 416 x 417 km, 51.6° (Epoch: 30 November)

Date Brightness Start Highest point End Pass type
(mag) Time Alt. Az. Time Alt. Az. Time Alt. Az.
30 Nov -3.7 16:26:55 10° W 16:30:16 84° S 16:33:39 10° E visible
30 Nov -2.9 18:03:40 10° W 18:06:55 46° SSW 18:07:41 37° SSE visible
01 Dec -3.3 17:15:14 10° W 17:18:34 59° SSW 17:21:29 13° ESE visible
01 Dec -1.2 18:52:24 10° W 18:54:24 18° SW 18:54:24 18° SW visible
02 Dec -3.5 16:26:46 10° W 16:30:07 71° SSW 16:33:28 10° ESE visible
02 Dec -1.8 18:03:41 10° W 18:06:34 26° SSW 18:08:19 17° SSE visible
03 Dec -2.2 17:15:03 10° W 17:18:10 36° SSW 17:21:16 10° SE visible
04 Dec -2.7 16:26:25 10° W 16:29:41 47° SSW 16:32:55 10° SE visible
04 Dec -0.8 18:04:01 10° WSW 18:05:49 14° SW 18:07:38 10° S visible
05 Dec -1.0 17:14:53 10° W 17:17:24 20° SW 17:19:56 10° SSE visible
